Simultaneous Nadir Overpasses (SNOs) Predictions

Prediction of SNOs between AQUA and METOP-A Satellite Orbit:

Table of predicted SNOs for the next 14.0 days since TLE Epoch: 6/5/2021
Index Date (AQUA) Time (AQUA) Lat,Lon (AQUA) SZA (AQUA ) Date (METOP-A) Time (METOP-A) Lat,Lon (METOP-A) SZA (METOP-A ) Distance(km) Time Diff (sec)
1 06/05/2021 09:45:48 -77.42,-162.61 124.71 06/05/2021 09:44:42 -77.42,-162.45 124.70 3.90 66
2 06/05/2021 10:35:15 77.43, 5.00 55.30 06/05/2021 10:35:22 77.42, 4.87 55.30 3.24 7
3 06/05/2021 11:24:48 -77.73, 171.36 124.33 06/05/2021 11:25:56 -77.75, 173.65 124.48 54.08 68
4 06/08/2021 05:20:02 -77.40, -96.09 125.00 06/08/2021 05:19:03 -77.42, -96.13 124.96 2.16 59
5 06/08/2021 06:09:30 77.46, 71.32 55.07 06/08/2021 06:09:42 77.46, 71.37 55.06 1.15 12
6 06/11/2021 00:54:18 -77.43, -29.79 125.17 06/11/2021 00:53:25 -77.41, -29.82 125.17 2.44 53
7 06/11/2021 01:43:45 77.44, 137.81 54.84 06/11/2021 01:44:04 77.45, 137.67 54.85 3.30 19
8 06/13/2021 20:28:33 -77.42, 36.68 125.34 06/13/2021 20:27:46 -77.45, 36.67 125.30 2.51 47
9 06/13/2021 21:18:01 77.48,-155.92 54.73 06/13/2021 21:18:25 77.48,-155.85 54.72 1.70 24
10 06/16/2021 16:02:48 -77.47, 102.95 125.39 06/16/2021 16:02:07 -77.44, 102.96 125.41 3.54 41
11 06/16/2021 16:52:15 77.48, -89.48 54.63 06/16/2021 16:52:46 77.47, -89.56 54.62 2.47 31



Historial Predications of SNOs between AQUA and METOP-A
